Wind_Speed
39 40 40 41 42 41 38 39 43 45 43 44 45 45 45 46 48 47 46 46 43 48 55 53 56 58 56 56 54 51 50 51 53 53 52 50 48 46 44 42 39 35 32 31 31 29 27 28 29 31 33 34 34 35 35 35 34 33 31 30 29 29 30 31 30 31 35 38 38 37 35 33 31 30 28 27 27 27 28 29 29 29 30 31 31 32
42 44 45 46 44 40 38 38 40 42 41 43 43 44 45 45 49 50 47 46 42 48 57 54 55 59 57 56 55 52 52 53 53 52 52 50 46 44 41 39 38 35 34 33 32 30 27 27 29 31 33 34 35 34 33 32 32 31 31 30 30 30 30 30 29 30 32 35 37 35 32 31 30 29 28 27 27 28 29 29 28 27 28 29 29 31
46 48 47 44 41 38 37 37 37 40 41 42 42 43 45 44 48 52 49 46 43 47 55 54 55 61 58 57 56 53 53 53 51 50 48 45 42 41 40 38 37 37 35 33 30 29 27 26 28 30 31 32 32 33 33 31 32 32 30 29 28 28 28 29 29 29 30 32 34 34 33 32 31 30 28 28 28 27 26 25 25 25 25 27 28 30
48 48 44 39 37 37 36 36 34 36 39 42 43 43 45 45 47 51 51 48 46 47 52 54 58 63 60 58 58 53 51 49 45 42 41 41 42 41 40 37 36 35 33 32 29 26 26 27 27 28 28 30 31 32 32 31 31 30 27 25 25 25 26 28 29 29 30 32 33 34 33 33 31 29 28 27 25 23 21 20 21 22 23 25 28 30
51 47 42 40 41 41 40 40 36 35 41 47 46 44 48 49 47 51 51 46 45 46 48 50 56 61 56 52 52 46 44 44 42 42 42 41 41 38 37 36 33 31 28 28 27 24 25 25 24 25 27 30 31 32 32 30 28 26 23 24 24 25 26 27 28 29 31 32 33 33 33 33 30 28 26 23 19 17 16 17 19 21 23 25 28 29
52 47 42 43 42 41 42 42 37 35 44 51 47 43 47 47 45 45 41 39 41 40 38 37 33 37 38 37 42 44 44 46 44 43 42 40 37 33 32 30 26 24 23 23 24 22 22 22 22 24 27 30 31 30 30 27 25 23 23 24 25 25 25 25 27 28 29 30 31 32 31 29 25 22 20 16 14 14 15 17 19 21 24 25 27 29
50 45 41 41 40 40 39 39 37 34 42 50 46 40 42 42 42 40 34 32 32 31 33 28 19 26 39 39 43 49 49 47 43 40 40 36 30 25 22 22 21 21 21 21 22 20 20 23 25 26 27 28 28 27 27 26 24 23 23 23 24 24 24 24 25 27 28 28 29 30 28 26 23 20 17 14 14 14 15 17 19 21 23 25 26 28
43 41 40 40 39 37 35 37 37 31 36 46 44 38 37 38 39 38 33 31 33 38 37 30 23 29 44 46 46 50 45 37 32 28 27 23 18 18 17 18 21 23 22 19 19 20 23 26 26 25 26 27 26 25 25 26 25 24 24 24 24 23 23 23 24 25 26 27 28 28 26 25 23 20 17 15 14 14 14 16 18 20 22 23 25 26
40 39 41 39 35 34 37 39 36 28 32 42 41 37 36 36 38 39 38 36 36 38 29 17 10 15 38 49 38 32 27 21 18 11 12 15 14 16 16 16 22 26 25 21 21 23 26 27 25 24 26 26 25 24 25 25 25 26 26 26 25 24 24 23 23 24 25 26 27 27 27 25 23 20 18 17 15 14 15 16 18 20 21 22 23 24
34 36 40 38 36 38 41 39 35 32 35 40 37 36 35 34 37 35 38 37 31 29 20 8 4 8 33 42 17 10 13 9 6 5 11 17 12 11 15 20 26 28 27 24 24 26 27 27 25 24 26 27 26 25 25 26 26 27 27 26 25 24 23 23 23 24 25 26 27 28 28 26 24 22 20 18 16 15 15 17 19 20 21 21 21 22
31 34 39 38 37 40 41 37 37 37 37 37 34 35 34 35 38 34 35 31 19 19 19 15 17 14 18 19 5 4 4 6 6 12 21 20 11 11 18 23 27 27 25 23 25 27 28 28 25 24 26 26 26 27 26 26 25 24 24 24 24 23 23 23 23 24 25 26 27 28 27 26 25 23 21 19 17 16 16 18 20 20 21 20 20 21
31 32 35 36 36 37 37 36 38 38 37 36 35 36 31 27 27 22 21 17 7 12 17 18 23 20 20 14 2 1 3 11 21 23 22 17 12 19 27 30 28 24 22 23 26 28 29 29 26 24 25 23 24 25 24 24 23 23 23 23 23 23 23 23 23 24 25 26 26 27 27 27 26 25 23 20 18 17 17 18 19 19 18 18 18 19
35 37 36 37 38 35 32 34 37 36 37 36 37 36 22 11 12 7 5 5 7 18 25 20 15 20 35 36 27 26 24 18 16 18 21 20 21 28 32 31 26 21 21 24 26 28 28 29 27 24 24 22 21 21 20 20 20 20 21 21 22 22 21 21 23 24 25 26 26 26 27 27 27 26 24 22 20 19 18 18 18 17 16 15 16 17
35 39 40 37 36 34 32 35 35 34 34 35 39 36 19 6 3 3 4 3 8 23 31 26 17 19 32 36 31 27 16 7 13 24 29 27 26 29 27 24 22 22 24 24 24 26 27 29 29 25 23 21 19 17 15 13 13 13 15 16 17 18 19 20 22 25 26 26 25 26 27 27 28 28 25 23 22 21 20 19 19 18 17 16 15 15
26 30 38 33 27 29 33 33 32 33 34 35 38 34 28 23 13 5 5 5 8 16 18 15 12 14 19 17 12 10 14 22 28 26 24 24 25 27 26 24 24 27 28 26 26 28 28 28 28 25 23 21 17 15 13 11 10 10 10 12 14 15 17 19 21 24 25 25 26 27 28 29 29 28 26 24 23 22 21 20 20 19 19 18 17 16
24 30 41 35 28 32 36 35 34 31 31 35 35 30 33 38 32 20 19 24 17 10 9 13 15 27 35 32 30 30 33 30 21 19 23 25 25 25 27 29 29 30 28 27 30 30 28 28 27 24 23 21 18 17 17 16 14 11 10 11 13 13 15 18 20 22 23 25 27 28 29 30 31 30 29 27 24 23 23 22 22 21 20 19 19 20
24 31 39 36 36 39 40 39 36 29 27 29 29 30 33 38 38 29 23 30 23 10 14 22 24 34 40 40 40 33 25 19 17 22 24 23 23 23 25 30 29 27 26 27 31 31 29 28 25 23 23 22 21 20 20 20 17 15 13 14 14 14 16 17 19 21 23 25 26 28 30 31 32 32 31 29 26 25 25 24 24 23 22 21 21 22
25 32 39 41 43 44 42 41 39 37 36 33 31 34 33 26 29 28 13 10 13 8 13 25 32 33 25 23 25 18 15 19 22 21 18 19 20 16 17 21 20 22 25 26 28 29 29 28 24 24 24 23 23 23 22 21 19 16 15 15 17 17 17 18 20 23 25 27 28 28 30 31 31 31 31 30 28 27 27 26 25 26 25 23 23 23
26 28 33 40 43 40 36 37 38 40 41 41 40 40 31 17 18 24 14 5 9 8 7 18 31 35 28 26 26 20 18 20 17 13 11 12 10 10 13 14 15 18 21 22 25 28 29 25 22 23 23 22 22 23 23 21 20 18 16 16 18 19 19 20 23 26 28 31 32 31 31 31 32 32 32 32 31 30 29 28 27 28 28 27 26 25
22 20 24 36 40 34 29 30 35 36 35 36 37 38 37 30 24 23 20 12 10 9 8 11 16 23 32 34 27 20 18 17 15 15 12 9 12 16 14 11 12 14 15 18 22 27 28 25 22 22 22 20 19 20 21 22 22 21 18 18 20 22 23 24 27 28 30 33 34 34 34 33 33 33 33 34 34 34 32 30 30 30 31 32 31 29
18 15 19 27 32 33 32 29 26 24 22 24 31 36 37 37 33 25 21 22 17 8 6 8 7 15 33 37 28 24 21 18 20 23 22 18 18 24 23 18 17 16 16 19 21 25 27 25 24 23 23 22 19 20 21 22 24 24 23 23 24 26 29 30 30 30 31 33 34 35 36 35 35 35 36 37 37 36 34 32 32 32 33 35 35 33
21 17 18 22 24 32 38 35 26 20 16 17 24 29 31 35 35 20 13 24 27 15 8 9 6 11 31 42 42 40 35 31 32 33 34 31 30 35 36 33 31 28 26 25 23 25 26 24 23 22 23 25 24 25 27 28 31 33 34 32 29 30 34 35 35 34 33 34 35 37 36 37 38 38 39 40 39 37 35 34 34 35 36 38 38 37
32 27 26 29 32 34 35 36 35 31 28 26 26 28 26 29 33 24 14 20 25 19 17 17 11 12 30 47 52 51 48 47 47 48 50 49 46 46 43 42 42 37 32 30 26 25 26 25 23 23 27 31 30 29 30 34 37 39 41 40 38 38 38 38 38 38 37 37 38 38 37 39 41 41 41 42 41 39 37 36 37 37 38 39 40 41
33 32 31 34 38 40 41 44 44 41 39 39 39 38 33 31 35 33 28 28 25 23 24 19 12 21 40 53 56 55 55 56 57 59 61 59 57 52 44 39 37 33 32 32 31 30 30 30 31 34 39 40 35 30 29 33 38 43 48 51 51 49 45 41 41 41 41 41 40 40 40 42 43 42 42 42 42 41 39 38 38 38 39 40 42 44
30 32 31 26 22 24 28 31 37 43 47 47 44 40 39 39 39 37 40 37 27 28 34 22 13 31 53 61 62 62 63 65 66 66 63 61 61 57 50 44 42 40 39 39 38 37 37 39 41 44 48 48 45 42 39 42 48 53 55 55 56 58 52 45 44 45 45 44 43 43 42 42 43 43 43 42 42 43 42 40 40 39 40 41 43 46
37 36 31 22 12 10 13 17 27 37 41 42 38 33 34 36 36 38 42 34 22 30 42 32 24 41 55 56 59 64 66 69 71 70 65 60 61 62 60 57 54 53 54 54 52 49 47 47 46 46 49 51 53 52 50 51 54 54 53 53 56 56 49 43 43 46 48 46 45 46 44 43 44 44 45 44 43 44 44 44 43 42 43 44 46 47
41 40 36 35 32 30 34 37 41 41 36 34 34 35 38 39 40 41 39 35 31 34 40 40 40 47 50 49 54 62 66 69 72 72 69 65 65 66 64 61 59 59 61 61 59 56 52 48 46 50 51 50 51 52 51 53 54 54 54 55 53 48 43 41 41 45 47 47 47 48 48 46 45 45 47 47 46 45 45 46 46 46 47 48 48 49
43 44 42 45 47 47 51 53 53 52 50 48 48 50 52 52 50 47 44 45 44 34 30 41 48 48 48 49 55 62 67 69 71 71 69 67 67 66 63 63 64 63 64 65 64 61 55 51 52 56 54 50 52 53 53 53 54 54 55 54 49 44 43 42 42 44 46 48 49 50 50 49 48 47 48 49 49 47 46 48 49 49 49 48 48 49
45 49 49 50 51 50 51 51 52 53 55 56 55 55 57 56 55 55 56 59 57 47 42 49 51 52 54 55 58 64 68 69 70 70 68 66 65 65 64 67 69 66 65 67 65 61 59 57 57 56 55 55 55 54 53 50 47 47 47 46 43 41 42 40 40 43 45 48 50 51 50 50 48 47 48 50 50 48 47 49 50 50 49 47 47 47
36 42 44 47 52 51 49 50 51 52 55 57 57 56 57 57 58 61 62 64 64 63 65 65 62 62 65 63 65 69 70 71 70 66 65 65 66 67 67 67 67 64 62 62 59 58 59 58 56 53 54 55 54 53 51 46 42 42 43 44 41 39 39 39 40 42 44 47 48 47 47 45 44 44 45 48 50 50 50 51 51 50 48 45 45 46
28 33 34 38 45 47 47 50 51 50 52 54 55 55 55 58 61 63 64 65 65 68 71 69 66 67 69 68 70 71 70 70 68 63 64 65 65 65 63 61 61 60 61 61 60 60 60 58 57 54 53 52 51 51 48 43 42 43 42 41 38 36 37 40 42 43 44 44 43 42 43 42 42 42 43 45 47 50 51 51 49 48 46 44 44 44
32 35 36 36 38 39 41 43 44 48 50 52 55 56 58 61 63 63 64 64 64 66 68 66 65 68 67 64 64 63 62 62 61 60 61 60 60 61 60 60 60 61 61 61 60 61 61 61 60 58 57 55 53 54 49 44 44 45 41 38 36 36 38 40 42 44 44 44 42 42 43 43 43 43 43 44 46 48 49 48 47 46 45 44 43 43
44 43 41 37 34 34 37 39 44 44 36 36 46 54 57 61 63 63 64 63 64 66 62 56 53 49 42 39 41 45 48 49 48 47 48 51 54 56 56 56 55 55 55 56 58 60 62 64 63 62 62 59 57 58 54 47 45 44 40 40 39 38 39 41 42 43 46 46 45 44 44 45 45 44 44 45 45 45 46 45 44 43 42 41 40 40
50 48 47 43 38 36 40 46 45 31 17 24 40 46 47 49 53 57 59 59 58 52 43 36 32 26 22 24 30 36 42 45 41 38 39 43 47 49 48 49 49 50 53 55 58 61 63 65 66 65 64 61 58 57 53 47 43 40 39 43 44 40 40 42 43 44 47 48 48 47 47 47 46 45 45 46 44 44 44 43 42 41 39 39 39 39
54 54 52 49 44 42 45 43 28 13 17 31 35 32 32 33 35 42 46 45 40 35 33 31 23 17 16 17 19 27 38 43 43 43 44 45 46 48 50 50 51 53 56 57 60 62 63 63 64 64 62 60 56 52 49 45 43 41 41 41 41 41 42 44 45 46 47 48 47 47 47 46 45 45 46 45 43 43 42 40 39 38 38 38 39 39
45 48 48 47 43 38 36 30 19 20 34 39 30 27 32 30 27 30 31 29 27 26 28 26 18 15 13 11 13 21 29 36 38 40 42 43 44 45 49 53 55 56 58 59 59 59 59 58 59 59 59 58 55 51 46 42 42 44 42 37 36 39 42 44 45 45 46 44 42 43 44 43 44 46 45 43 42 41 39 37 36 36 35 36 37 39
33 35 38 41 37 32 31 33 35 39 41 35 28 25 24 20 19 20 20 19 17 13 11 11 16 18 17 16 15 16 20 26 30 28 28 30 31 31 35 40 45 48 50 52 52 51 51 50 49 50 51 52 51 48 43 38 37 39 38 34 33 35 37 40 41 42 41 40 38 40 41 40 42 43 43 41 40 38 36 36 36 35 34 34 35 37
25 25 27 29 27 27 30 28 26 24 16 10 10 10 10 12 14 17 20 17 10 10 13 16 26 30 26 22 21 20 19 22 24 23 22 22 22 23 26 29 33 37 40 42 44 44 43 42 41 41 41 42 42 41 38 33 31 33 34 33 32 33 36 39 40 40 39 37 37 38 39 38 38 40 41 39 38 36 36 36 36 35 34 34 35 36
27 26 29 30 27 29 28 17 10 10 6 4 9 15 18 19 17 19 18 13 8 20 22 27 37 39 32 28 27 27 29 29 27 24 22 24 23 23 25 26 28 30 32 34 35 36 37 37 36 35 34 33 33 33 32 30 28 31 36 37 34 34 37 40 41 41 40 38 38 39 38 38 38 39 39 38 37 36 36 36 35 34 35 35 36 36
35 34 34 34 32 33 31 22 17 18 14 12 19 27 30 31 28 21 12 11 23 34 35 38 43 39 35 34 33 33 36 40 40 35 34 38 38 36 37 36 34 32 32 30 29 30 32 33 31 30 29 28 28 28 29 29 28 31 37 40 38 36 37 39 40 42 42 40 40 40 39 38 39 40 39 39 38 38 37 37 36 35 36 36 35 36
29 28 26 27 28 30 29 24 23 25 24 24 28 33 39 43 35 19 12 26 44 48 43 42 39 35 37 41 41 42 44 46 49 49 50 53 52 49 49 50 47 43 40 37 34 32 32 33 32 29 26 25 25 27 28 28 29 32 37 41 42 39 38 39 40 40 41 41 41 42 42 41 41 42 42 42 41 40 39 37 36 36 37 37 37 37
19 20 19 20 22 23 24 23 22 25 28 29 31 34 36 37 33 27 32 44 49 46 40 35 34 38 41 42 43 47 50 52 55 58 60 63 64 63 62 62 59 54 49 45 42 39 36 34 34 32 29 25 24 25 27 28 29 31 35 41 42 41 39 38 37 36 37 38 39 42 44 44 44 44 45 45 44 43 41 39 37 37 37 39 40 40
21 20 21 23 24 24 26 23 17 19 25 28 33 37 36 36 38 42 46 46 43 40 38 37 40 43 44 44 47 50 51 54 56 59 62 65 66 67 67 67 66 63 59 54 49 45 43 39 35 34 32 29 26 25 27 28 28 28 31 34 35 35 35 34 33 32 32 33 34 36 40 42 44 44 45 46 46 46 44 42 40 39 38 38 40 41
30 28 27 28 25 21 21 19 17 19 24 28 36 43 42 41 43 44 44 43 42 42 43 45 47 46 45 48 50 51 52 55 56 58 61 63 64 65 65 65 64 64 64 63 59 55 52 47 42 38 36 34 32 31 30 30 31 30 30 30 29 28 30 31 30 30 30 30 31 31 33 35 38 40 42 43 44 45 46 45 44 43 41 40 39 40
30 28 27 28 27 25 27 31 34 35 35 36 41 45 43 41 41 41 42 44 44 45 47 49 49 49 49 49 48 49 53 55 56 58 59 60 62 62 61 61 60 59 61 62 63 61 59 57 53 49 44 40 39 38 37 36 36 34 33 33 33 30 29 28 28 28 29 30 30 30 30 31 32 34 36 38 39 40 42 44 45 45 44 42 40 39
30 29 28 31 33 33 36 39 39 38 37 36 37 39 39 40 41 43 45 45 45 46 48 49 50 52 52 48 47 48 51 53 55 55 55 56 59 59 57 57 57 55 55 57 58 58 59 60 60 59 55 50 46 44 43 43 42 41 40 41 41 39 37 34 32 31 31 32 32 32 31 32 32 33 34 35 36 36 36 37 39 41 43 43 42 41
32 29 29 32 33 33 36 39 37 36 37 38 36 36 38 40 43 45 46 46 47 47 48 50 52 52 49 47 47 49 51 51 51 52 51 53 55 56 57 57 56 54 53 53 53 53 54 57 59 61 62 59 55 54 52 50 49 48 48 48 49 48 46 43 41 39 37 36 37 37 37 37 36 36 36 36 36 36 35 34 34 35 37 39 40 39
33 30 30 35 38 37 40 45 44 40 40 40 39 38 39 41 44 45 46 47 48 49 51 52 51 48 45 45 46 47 50 50 49 49 49 50 51 53 55 56 57 56 54 53 52 51 52 53 55 57 60 62 61 61 60 59 57 57 56 56 55 55 55 53 52 50 48 45 44 43 43 43 43 43 42 41 41 41 40 40 40 39 37 36 35 34
34 36 37 40 42 43 46 46 44 43 44 44 44 42 42 44 45 45 45 46 48 49 50 50 48 46 45 45 46 47 49 49 48 46 46 47 48 50 52 54 56 57 56 55 53 52 51 53 53 53 55 57 58 59 59 61 61 60 61 61 60 60 60 59 59 58 57 56 54 52 50 50 49 49 48 48 47 46 46 46 47 46 46 45 44 42
37 40 42 41 42 45 46 43 40 42 45 45 45 44 44 45 46 46 47 47 47 47 48 47 46 46 46 45 46 48 49 49 48 47 48 49 49 50 50 52 54 55 57 57 55 54 53 52 52 53 53 53 53 53 54 56 57 57 56 57 58 59 59 59 60 60 61 61 61 60 59 58 57 55 54 53 52 51 51 51 51 51 52 52 52 52
41 42 41 42 44 46 45 42 41 44 45 44 44 45 45 46 48 49 49 48 47 47 47 47 47 47 46 45 46 47 48 48 48 50 51 51 51 52 53 52 53 54 55 56 56 56 55 53 52 52 52 52 51 50 50 50 51 52 51 51 52 54 55 57 57 58 59 60 60 61 62 63 63 63 62 60 59 57 56 55 54 54 54 54 54 53
Wind_Direction
276 271 264 264 267 270 275 277 279 283 285 283 281 278 278 279 280 282 283 286 291 288 285 286 287 288 290 291 293 294 293 291 288 289 289 290 291 289 288 286 285 286 288 291 292 287 278 271 265 258 252 249 247 247 250 253 256 257 257 259 260 259 261 262 263 260 252 248 249 250 251 252 255 255 253 250 252 255 258 261 263 265 268 270 273 275
272 267 266 271 276 281 284 283 282 281 281 281 280 279 279 278 281 285 286 288 291 287 285 289 289 289 290 291 291 291 290 288 287 289 289 290 290 287 285 284 284 288 290 289 287 286 280 272 267 261 255 251 248 248 250 254 257 256 254 256 257 257 258 260 261 259 252 247 248 250 249 249 249 247 244 244 248 252 255 258 261 264 268 271 274 276
269 267 271 277 283 286 284 281 280 279 280 279 278 277 276 280 285 288 289 291 293 288 288 292 290 288 290 290 288 287 287 286 288 289 289 288 288 286 286 287 289 291 290 288 286 283 278 272 269 265 261 257 253 250 251 254 255 253 254 257 258 258 258 260 261 260 254 247 246 246 244 242 241 238 237 239 243 247 251 256 263 268 272 275 276 277
267 270 276 282 284 283 281 281 280 279 279 278 277 275 276 283 286 285 290 295 295 290 290 293 289 287 288 286 285 286 286 287 288 288 286 286 289 290 289 289 290 291 292 291 288 279 273 272 271 268 268 267 261 256 255 254 254 253 256 260 258 257 257 259 260 258 251 245 243 241 239 236 234 233 234 237 241 245 253 262 269 273 276 277 278 278
268 272 278 279 278 278 278 277 275 276 279 279 277 275 279 286 286 285 291 296 293 289 289 292 289 285 285 286 286 287 287 287 289 289 288 287 290 293 292 291 291 292 293 292 288 281 272 270 270 271 271 269 266 262 260 257 254 254 258 259 256 254 255 258 260 256 248 242 240 238 234 232 231 232 235 237 240 247 259 267 271 275 278 280 281 281
270 273 275 275 274 274 273 273 271 272 279 279 275 278 285 288 288 288 293 295 290 287 290 295 294 290 289 288 288 289 289 290 291 292 291 291 292 294 293 294 295 293 294 292 288 282 272 271 275 276 272 270 269 265 261 257 252 253 257 257 255 253 255 257 257 253 247 242 238 234 232 231 232 233 233 234 241 252 261 268 274 279 283 285 285 284
272 274 274 273 273 272 269 269 269 271 274 275 277 286 290 290 289 290 293 291 284 285 291 288 280 287 291 286 286 291 292 293 294 293 292 293 294 297 299 304 308 302 299 294 286 278 274 280 284 279 274 271 268 262 256 252 250 253 258 259 257 255 255 256 254 251 247 242 236 232 228 226 224 222 222 229 241 253 264 274 281 285 287 289 288 284
272 276 276 277 276 272 267 266 271 271 268 273 283 289 288 288 289 289 290 288 286 291 291 281 271 276 283 284 290 296 296 297 299 297 298 298 298 308 310 308 314 315 308 294 282 280 282 287 287 278 272 268 261 254 249 247 249 255 262 263 260 256 255 254 251 247 244 241 237 231 225 220 217 214 217 227 241 258 272 280 285 288 289 289 287 282
273 276 278 278 274 271 271 273 276 273 266 274 284 285 283 283 283 283 284 284 290 295 291 282 264 259 280 289 297 303 300 303 308 312 320 314 306 314 314 306 312 318 311 294 286 292 290 288 285 272 267 263 253 244 241 245 253 260 264 262 259 257 255 253 250 246 243 240 235 229 225 220 216 216 221 232 247 264 276 283 287 289 291 290 285 280
277 277 276 271 269 274 279 279 277 272 271 276 280 280 279 278 277 278 281 282 288 288 278 261 212 249 286 292 303 321 310 322 350 21 347 324 302 302 315 311 310 314 309 292 285 294 294 288 283 270 264 261 251 244 246 255 261 263 263 260 259 258 255 253 250 246 242 240 236 233 230 225 220 222 229 241 254 268 278 284 286 287 290 290 287 281
283 279 274 272 277 280 279 276 274 272 273 275 276 275 275 274 275 276 274 275 283 278 263 261 270 264 278 295 355 21 356 51 3 321 318 313 287 287 308 309 307 308 305 287 275 284 290 288 284 273 267 264 257 254 258 263 264 263 262 260 260 257 254 252 248 245 243 241 240 238 235 230 228 231 239 247 257 266 274 279 281 283 286 289 290 286
284 277 278 285 287 283 279 277 275 272 269 270 271 270 273 277 278 275 266 259 250 265 262 271 279 255 242 266 338 139 307 327 312 306 308 303 283 292 303 304 302 302 299 286 273 277 283 287 288 279 272 270 263 259 261 263 264 263 262 260 257 255 253 250 245 244 244 244 245 243 241 238 237 241 246 251 255 260 264 270 274 278 281 286 290 290
278 276 282 286 284 281 281 276 272 269 267 267 263 259 262 283 289 270 238 223 219 253 262 268 270 244 245 257 264 271 288 306 306 308 309 298 291 296 299 298 295 292 296 291 278 276 280 285 289 282 273 272 267 263 264 264 263 262 259 257 255 253 250 246 243 244 244 247 249 248 246 246 245 247 249 252 254 256 259 265 271 277 282 285 288 289
281 281 280 277 276 279 277 270 268 271 274 272 262 253 236 216 271 249 244 273 249 257 263 260 250 248 256 266 275 276 273 272 292 303 302 294 292 294 289 286 290 291 293 290 278 279 280 281 286 280 271 272 269 265 263 259 260 260 258 257 256 252 248 245 244 244 246 250 251 251 250 248 247 249 251 253 255 257 263 269 275 280 285 288 290 288
280 281 279 275 276 281 280 278 281 284 283 279 270 258 239 229 226 212 229 241 251 265 262 236 219 245 261 271 279 262 258 279 295 303 302 298 299 295 282 277 286 288 285 279 275 279 279 280 283 274 265 269 267 256 250 251 263 271 268 263 258 254 251 249 248 249 252 255 256 256 256 253 252 254 255 256 258 263 269 274 278 281 285 289 291 290
269 272 278 282 284 285 283 286 292 286 273 270 266 249 240 244 244 240 243 248 259 288 261 219 227 254 263 267 271 277 282 285 296 306 307 308 305 296 280 271 276 280 278 273 270 274 277 279 277 262 256 262 259 250 250 257 268 278 280 272 265 258 251 248 250 253 257 258 259 260 260 259 258 258 259 261 265 271 274 276 278 280 282 285 289 290
267 269 274 279 280 278 278 282 285 278 266 264 257 246 252 259 252 245 248 254 260 280 261 252 258 263 268 275 277 278 276 271 285 300 308 312 304 297 287 276 271 271 270 265 262 265 272 275 268 251 247 253 253 251 255 262 271 280 282 276 269 260 251 251 256 259 261 261 262 261 260 259 260 262 263 265 268 273 276 278 280 280 280 282 286 288
270 271 271 271 273 271 273 278 276 272 268 261 255 260 268 265 249 243 245 257 251 256 259 256 263 267 267 274 275 267 261 276 292 299 307 308 297 298 299 283 269 265 265 262 258 259 267 270 259 246 244 249 251 250 256 263 271 280 281 272 265 260 259 264 267 267 266 266 265 262 260 261 262 265 265 264 267 273 275 279 282 281 279 280 283 285
265 271 269 267 270 274 275 274 269 266 263 256 256 263 261 247 238 233 223 231 240 244 252 243 255 266 264 264 271 272 275 286 290 290 314 336 331 321 309 289 274 268 266 264 258 257 262 262 251 242 242 246 248 251 257 261 267 277 278 268 263 261 260 262 265 268 270 269 267 265 263 263 263 264 265 264 267 271 274 278 280 279 278 278 279 281
261 268 269 263 265 273 276 269 265 263 260 256 253 251 248 247 248 236 225 228 232 242 259 241 245 262 264 268 276 277 278 286 281 277 296 335 343 331 324 322 312 294 278 270 261 258 259 254 246 242 241 242 247 255 259 261 267 275 278 272 267 262 257 257 260 267 270 268 267 266 264 263 263 264 266 266 266 270 274 277 278 277 277 276 276 277
266 265 270 268 264 266 264 261 263 264 264 264 254 246 244 245 247 248 240 236 238 248 258 250 243 250 259 267 272 269 272 282 280 279 281 281 295 302 304 310 314 307 294 280 265 259 255 248 244 244 241 242 253 266 269 267 269 274 281 286 282 270 263 262 263 265 267 266 263 263 262 263 264 264 265 265 265 268 272 275 276 278 278 276 274 273
267 260 268 275 266 257 255 255 258 255 256 269 266 260 257 251 248 252 249 241 243 248 252 265 267 247 255 261 263 263 267 275 276 276 276 273 275 281 283 284 287 288 286 281 270 258 248 242 242 244 247 255 270 283 281 278 279 279 282 290 291 280 271 268 266 266 269 266 260 259 261 263 263 263 264 264 263 266 270 273 276 278 278 275 272 271
266 260 263 267 261 255 255 254 252 251 254 263 269 270 271 261 250 244 243 246 247 253 269 276 272 252 256 259 261 264 268 274 278 277 278 277 275 276 277 278 279 279 274 270 266 256 249 248 250 258 272 279 284 288 285 282 284 282 282 287 291 288 279 270 267 268 268 265 257 254 256 258 260 261 262 263 262 263 268 271 273 275 275 273 270 269
264 256 256 259 259 259 258 258 256 255 258 261 261 260 261 262 258 254 257 260 256 257 265 271 265 254 257 259 263 268 271 275 278 279 280 282 279 277 275 272 271 270 266 262 260 258 258 263 266 274 287 291 285 282 283 282 283 285 287 287 288 290 286 273 265 266 266 261 255 251 251 253 255 257 259 261 262 262 263 267 269 270 271 270 268 267
266 259 252 252 260 261 258 260 259 257 258 259 259 259 258 261 264 264 263 262 259 254 253 253 255 256 259 261 263 267 271 275 278 278 279 281 279 277 274 269 269 270 269 266 261 258 261 270 277 282 289 290 284 281 282 283 286 288 287 284 286 290 287 273 262 262 264 261 254 249 248 251 253 255 257 259 260 260 260 262 264 265 266 267 266 264
271 263 250 240 239 247 246 251 257 259 259 255 253 254 255 259 264 266 264 259 255 254 251 248 255 261 262 265 266 268 271 274 276 278 280 281 280 280 279 278 279 281 281 277 271 267 266 268 276 284 286 286 285 284 284 284 285 286 281 279 285 286 278 266 260 260 261 260 254 249 249 253 254 254 254 254 257 257 256 258 261 262 263 265 263 260
273 270 261 252 248 251 256 259 262 263 257 248 247 251 257 264 269 267 262 256 257 261 256 251 258 264 264 265 268 270 272 273 276 279 282 283 282 283 284 286 289 291 292 288 280 278 274 267 275 287 285 281 281 281 283 282 281 281 278 276 280 279 270 266 264 261 258 257 254 250 251 255 258 256 252 250 252 252 251 255 258 260 263 264 262 258
273 272 270 265 259 258 262 265 266 263 258 256 258 262 267 271 270 263 258 258 260 264 261 257 259 262 263 264 267 269 272 275 277 279 283 284 285 286 287 289 292 294 294 291 286 284 280 275 283 291 289 285 282 279 282 282 278 278 277 273 270 271 270 270 266 261 258 256 254 252 253 257 259 257 252 249 249 247 247 253 257 261 264 264 260 258
268 265 266 267 264 263 264 265 266 263 260 260 261 263 266 268 266 262 260 261 261 260 261 263 262 262 264 265 266 270 272 274 276 279 283 285 287 287 288 289 292 293 292 291 290 288 286 285 290 293 291 291 287 283 285 284 277 276 277 271 266 267 270 271 267 260 256 254 254 255 256 258 258 255 251 249 249 247 248 254 258 262 263 261 258 257
270 268 269 268 265 264 264 265 264 263 261 260 260 262 263 264 264 263 262 262 262 260 262 265 264 263 265 266 267 269 270 271 274 279 283 285 287 289 290 290 290 290 289 289 289 288 287 288 289 287 287 288 286 284 285 280 274 275 276 269 265 266 269 270 267 261 256 255 257 258 257 256 255 255 254 252 251 250 252 255 259 261 260 258 257 256
282 286 285 280 274 270 269 268 264 260 258 258 259 262 263 263 263 262 261 262 261 261 263 265 263 264 267 269 269 270 271 272 273 277 282 286 287 287 287 286 285 285 285 285 284 284 284 284 282 280 280 280 278 279 278 273 271 276 277 270 265 266 267 266 266 263 259 259 259 257 255 254 255 258 258 256 253 252 253 255 257 257 257 257 257 256
285 291 292 289 281 274 274 273 269 267 265 260 259 262 263 260 259 259 261 262 261 260 262 262 263 267 273 275 274 274 274 272 272 276 279 280 280 279 280 280 281 282 282 282 282 281 281 282 282 281 280 278 276 275 271 266 267 273 276 270 265 266 266 264 264 263 261 261 259 255 254 254 255 256 257 256 254 252 253 253 254 255 256 256 256 256
281 286 289 288 282 279 283 285 282 279 271 256 256 263 264 261 260 260 261 263 263 262 262 263 266 272 278 278 273 270 269 269 270 273 273 271 271 273 274 275 276 277 279 281 281 281 282 282 283 283 282 281 279 278 275 270 267 270 271 265 261 264 267 265 262 259 258 260 258 255 253 252 253 253 254 255 254 251 250 250 251 253 253 253 252 252
277 280 283 283 282 284 289 290 287 281 266 262 269 272 271 268 266 264 264 267 269 266 263 266 272 277 278 275 271 267 265 264 264 264 265 267 270 271 271 272 274 275 277 278 279 280 281 282 283 283 283 282 282 282 280 274 267 266 266 261 257 263 269 266 261 257 256 258 258 255 253 251 251 250 251 252 251 248 247 247 248 248 248 248 247 247
274 276 278 278 278 280 284 285 282 264 268 280 281 274 269 270 270 268 270 273 275 272 265 266 276 294 297 287 273 263 260 260 259 260 261 262 264 267 269 271 273 274 275 276 278 279 281 282 283 283 283 284 284 284 283 276 266 262 263 261 259 265 270 266 261 258 256 258 258 255 254 253 250 247 248 250 248 245 244 244 245 246 247 246 246 246
272 273 273 272 271 273 275 271 261 267 276 278 277 271 269 270 267 267 271 273 272 272 269 270 288 315 316 301 273 258 256 256 257 260 260 259 261 263 266 269 271 272 274 275 277 279 280 282 283 284 285 286 287 285 283 279 272 265 262 260 262 267 268 264 259 256 255 257 258 255 255 256 251 246 245 246 244 243 242 242 243 245 246 246 246 246
273 272 268 267 265 262 263 261 263 271 273 270 271 271 272 278 275 274 281 278 272 284 296 304 316 314 306 300 287 268 256 250 246 244 247 252 255 258 261 265 267 268 270 272 274 276 279 280 281 282 284 285 286 286 283 279 274 267 260 258 260 262 261 258 256 255 255 257 257 256 257 257 250 244 242 241 241 240 240 241 244 244 245 245 245 246
270 269 266 270 270 267 270 271 268 270 271 269 270 263 272 293 292 286 281 268 273 331 344 337 335 330 322 313 303 295 286 270 254 245 250 258 258 257 258 258 260 263 265 268 270 271 272 274 275 277 279 280 281 283 279 271 264 258 252 248 249 250 251 253 254 254 255 255 253 254 255 252 245 240 239 239 238 239 240 242 246 247 247 245 244 243
267 271 272 278 281 278 280 284 281 278 291 331 310 296 291 294 300 296 275 253 314 344 340 333 334 332 325 318 313 310 313 312 298 284 289 296 291 285 281 272 267 266 264 264 269 271 270 271 270 270 271 273 273 272 266 257 247 243 241 240 242 246 249 253 255 255 255 254 252 250 247 242 238 235 235 235 236 237 240 242 246 248 248 247 245 243
277 277 276 277 279 278 279 279 280 280 281 292 298 295 291 294 304 305 277 273 318 329 330 327 326 324 321 321 318 314 318 320 312 304 308 312 309 306 305 300 294 289 281 272 268 269 269 269 267 266 263 262 261 259 254 249 240 235 236 238 241 245 249 252 255 256 256 255 253 248 241 235 231 229 229 231 233 236 239 243 247 247 246 246 246 244
284 284 283 280 278 279 280 280 280 279 281 289 294 292 291 296 301 305 302 308 315 320 323 320 317 314 313 312 311 311 313 315 312 307 307 308 307 305 305 305 303 301 298 292 286 280 274 266 262 262 260 256 255 251 248 247 242 236 236 238 242 246 248 249 252 254 256 256 253 248 241 232 228 227 228 230 233 235 239 244 246 245 242 242 242 243
295 297 293 284 281 285 288 289 287 281 280 285 289 290 296 304 309 311 313 315 316 319 319 314 310 311 310 307 307 307 306 307 308 306 304 304 305 304 303 304 303 300 298 296 294 291 286 275 261 256 254 254 253 248 244 245 243 239 237 238 242 245 245 245 247 248 251 252 250 248 244 238 234 232 231 233 234 236 238 240 242 243 242 242 241 242
292 292 285 281 283 285 284 283 283 281 279 283 290 294 301 310 313 313 315 317 318 316 314 311 312 314 313 310 308 306 305 304 306 305 304 305 306 306 306 306 306 303 301 298 294 291 290 284 271 260 255 253 254 254 250 246 243 240 237 236 239 240 239 238 238 239 240 243 244 245 246 245 243 241 240 239 238 237 236 236 238 240 242 243 243 243
281 280 281 282 281 278 273 266 263 271 278 287 299 305 308 309 311 313 316 317 317 315 313 313 314 314 314 314 313 311 310 308 308 308 309 308 308 308 308 308 308 307 305 303 299 296 293 289 282 274 266 262 263 265 263 258 252 246 242 244 246 244 239 235 234 234 235 236 237 240 242 245 246 247 247 246 245 242 240 239 239 240 241 243 245 245
280 280 280 279 276 274 273 273 274 279 283 287 296 303 307 308 310 313 314 315 315 314 313 313 313 313 314 315 314 312 311 310 310 311 311 310 310 310 309 308 308 308 306 304 302 300 298 294 290 285 279 274 273 273 272 270 264 256 252 257 262 260 253 247 241 238 237 236 238 239 240 242 244 246 246 247 248 248 248 246 245 243 242 241 243 244
284 285 283 281 280 279 278 279 283 289 293 294 296 301 305 307 310 312 312 313 313 313 313 312 311 312 314 314 313 311 310 310 310 310 310 309 309 308 308 307 307 306 306 305 303 302 301 298 295 291 286 280 278 277 276 274 272 268 267 270 273 272 268 263 257 251 246 243 243 243 244 246 247 249 249 248 247 247 249 251 250 247 245 243 243 245
288 289 287 285 283 280 280 286 292 296 298 301 302 302 303 306 309 310 311 311 311 311 311 309 309 311 312 312 311 309 308 308 308 308 308 308 307 307 307 306 306 305 304 304 303 302 301 299 298 295 292 286 282 281 280 277 275 275 275 276 277 276 274 270 267 264 260 254 251 249 249 251 252 255 258 257 254 251 251 254 257 255 251 247 246 247
288 288 286 284 282 280 284 291 297 298 300 303 304 304 304 306 306 307 307 307 308 308 307 307 309 310 310 309 308 307 306 307 307 307 306 306 306 306 306 305 305 305 303 302 302 300 300 299 297 296 294 291 289 289 287 284 281 280 280 280 280 279 278 275 274 272 270 266 262 259 257 257 257 259 261 263 263 261 259 260 262 262 260 258 256 257
285 283 281 281 280 282 286 292 296 299 300 302 303 303 304 305 304 304 304 303 304 305 305 306 307 308 308 307 306 305 305 305 306 306 306 305 305 305 305 305 305 305 305 304 302 301 299 298 297 295 294 293 292 292 291 288 286 285 284 283 282 282 281 281 280 279 276 273 270 267 266 265 265 265 265 266 266 266 265 265 265 266 267 267 266 266
277 277 279 278 276 280 286 290 294 296 297 299 300 301 303 304 304 303 302 302 303 303 304 305 305 304 305 304 304 303 303 303 304 304 303 304 305 304 304 303 302 303 304 304 302 301 299 297 295 294 293 292 291 290 289 289 288 286 285 283 282 282 282 282 282 282 281 278 275 272 271 271 270 270 270 270 270 270 269 268 269 270 271 271 271 270
277 279 282 278 276 281 286 289 292 292 293 295 298 300 302 303 302 301 301 301 302 303 303 304 303 303 303 301 300 300 300 300 301 301 301 302 303 303 302 301 300 300 300 299 299 299 298 295 293 291 290 289 288 287 286 286 286 286 285 283 281 280 279 279 279 279 279 279 278 275 274 273 272 272 272 272 273 274 273 273 274 274 273 272 272 270
Height
3135 3130 3127 3129 3130 3133 3136 3136 3132 3130 3131 3130 3128 3126 3124 3122 3118 3119 3121 3122 3125 3115 3103 3105 3101 3096 3097 3097 3099 3101 3102 3099 3096 3096 3095 3094 3095 3094 3093 3091 3090 3089 3087 3087 3087 3087 3087 3086 3086 3085 3084 3083 3083 3083 3083 3083 3084 3084 3085 3085 3085 3085 3084 3083 3082 3082 3082 3083 3084 3086 3087 3090 3092 3094 3095 3096 3097 3098 3098 3098 3098 3099 3099 3098 3099 3099
3127 3121 3121 3125 3128 3133 3134 3133 3131 3128 3128 3126 3124 3122 3119 3118 3113 3114 3117 3118 3122 3111 3097 3101 3096 3089 3092 3091 3092 3095 3094 3092 3092 3092 3090 3089 3090 3088 3087 3086 3084 3084 3082 3082 3082 3082 3082 3081 3081 3080 3079 3078 3078 3078 3079 3079 3080 3080 3080 3080 3080 3080 3080 3079 3079 3078 3079 3080 3081 3083 3085 3086 3088 3089 3090 3092 3093 3093 3094 3094 3094 3095 3095 3095 3095 3095
3119 3113 3118 3125 3127 3129 3128 3128 3128 3125 3124 3122 3121 3118 3113 3115 3111 3107 3111 3114 3117 3107 3094 3096 3090 3081 3085 3086 3085 3088 3087 3086 3088 3088 3086 3084 3084 3082 3082 3081 3079 3078 3077 3076 3077 3077 3077 3077 3076 3075 3074 3074 3074 3074 3074 3075 3075 3075 3075 3076 3076 3076 3076 3076 3075 3075 3076 3077 3078 3079 3081 3082 3083 3084 3086 3087 3088 3089 3089 3090 3090 3091 3091 3091 3091 3091
3112 3110 3118 3124 3124 3124 3123 3124 3125 3122 3120 3117 3117 3115 3109 3113 3111 3102 3104 3109 3110 3104 3095 3092 3083 3073 3078 3078 3077 3082 3081 3081 3083 3083 3082 3081 3079 3078 3077 3077 3075 3073 3071 3071 3072 3073 3072 3072 3071 3071 3070 3070 3070 3069 3069 3070 3070 3071 3071 3071 3072 3072 3072 3072 3071 3072 3072 3072 3073 3074 3075 3076 3078 3080 3081 3083 3084 3085 3086 3087 3087 3087 3087 3087 3087 3087
3107 3111 3118 3120 3119 3119 3118 3119 3121 3120 3116 3111 3112 3113 3107 3109 3109 3101 3102 3104 3101 3099 3095 3092 3075 3061 3068 3071 3069 3076 3077 3075 3079 3078 3077 3077 3075 3074 3071 3071 3070 3068 3068 3067 3067 3068 3068 3067 3067 3067 3066 3065 3065 3064 3064 3065 3066 3067 3067 3067 3067 3068 3068 3068 3068 3067 3067 3067 3068 3069 3071 3072 3074 3076 3078 3080 3081 3083 3083 3084 3084 3083 3083 3083 3083 3083
3103 3111 3115 3114 3114 3115 3114 3113 3117 3119 3112 3103 3105 3110 3107 3105 3106 3103 3103 3100 3094 3091 3092 3095 3077 3049 3054 3065 3063 3068 3072 3070 3073 3072 3070 3071 3070 3069 3067 3065 3066 3064 3064 3063 3063 3064 3064 3064 3064 3063 3062 3061 3060 3061 3061 3062 3062 3062 3063 3063 3063 3063 3063 3064 3063 3063 3063 3064 3065 3066 3067 3069 3072 3074 3076 3078 3079 3080 3080 3080 3080 3079 3079 3079 3079 3079
3099 3106 3110 3109 3109 3109 3109 3108 3112 3116 3109 3098 3100 3107 3106 3103 3102 3101 3102 3099 3092 3087 3086 3094 3088 3056 3043 3055 3061 3062 3064 3064 3067 3066 3064 3065 3064 3064 3063 3062 3062 3061 3061 3060 3060 3060 3060 3060 3060 3059 3058 3058 3057 3057 3057 3058 3058 3058 3059 3059 3059 3059 3059 3059 3059 3060 3060 3061 3062 3063 3065 3067 3069 3071 3074 3075 3076 3076 3076 3076 3076 3076 3076 3076 3076 3076
3097 3102 3104 3105 3105 3103 3103 3104 3106 3111 3106 3096 3097 3103 3102 3101 3100 3097 3098 3097 3090 3086 3081 3083 3091 3073 3042 3042 3056 3057 3056 3058 3059 3059 3058 3059 3059 3059 3059 3058 3058 3058 3057 3057 3057 3057 3057 3056 3056 3055 3054 3053 3053 3053 3053 3053 3054 3054 3055 3055 3055 3055 3055 3056 3056 3057 3058 3059 3060 3061 3062 3064 3066 3068 3070 3071 3071 3072 3072 3073 3073 3073 3073 3073 3073 3072
3097 3100 3099 3100 3101 3099 3098 3099 3102 3105 3102 3096 3097 3099 3098 3098 3097 3096 3095 3093 3090 3085 3076 3072 3084 3081 3046 3034 3050 3052 3050 3052 3051 3053 3054 3054 3055 3054 3054 3055 3055 3055 3054 3054 3054 3053 3053 3052 3052 3051 3050 3049 3048 3048 3049 3049 3050 3050 3051 3051 3051 3052 3052 3053 3053 3054 3055 3056 3058 3059 3059 3061 3063 3064 3065 3066 3067 3068 3068 3069 3069 3070 3070 3070 3070 3070
3097 3097 3095 3096 3096 3095 3094 3097 3098 3099 3096 3094 3096 3095 3094 3095 3092 3094 3092 3090 3092 3083 3071 3070 3079 3080 3051 3032 3044 3047 3045 3048 3046 3049 3051 3050 3051 3050 3051 3052 3051 3052 3051 3050 3050 3049 3049 3048 3047 3047 3046 3045 3045 3045 3045 3046 3046 3046 3047 3048 3048 3049 3049 3050 3050 3051 3053 3054 3055 3056 3057 3058 3059 3060 3061 3062 3063 3063 3064 3065 3066 3067 3067 3067 3067 3067
3094 3093 3091 3091 3092 3091 3092 3094 3094 3094 3093 3093 3094 3091 3092 3092 3089 3091 3088 3088 3092 3077 3065 3068 3074 3079 3058 3034 3039 3044 3043 3046 3045 3047 3048 3048 3049 3048 3048 3049 3048 3048 3048 3047 3047 3045 3045 3044 3043 3043 3042 3042 3041 3042 3042 3042 3043 3043 3044 3044 3045 3045 3046 3046 3047 3049 3050 3052 3052 3054 3055 3056 3056 3056 3057 3058 3058 3058 3059 3060 3062 3063 3064 3064 3063 3063
3089 3087 3087 3087 3088 3088 3090 3091 3089 3090 3091 3090 3091 3089 3089 3088 3086 3087 3084 3086 3088 3071 3061 3065 3069 3073 3055 3033 3038 3041 3041 3046 3045 3045 3046 3046 3047 3046 3046 3046 3045 3045 3044 3044 3044 3042 3041 3040 3040 3039 3038 3038 3038 3038 3039 3039 3040 3040 3040 3041 3041 3042 3042 3043 3045 3046 3048 3049 3050 3051 3052 3052 3053 3053 3053 3054 3054 3054 3055 3056 3057 3058 3059 3059 3059 3058
3083 3083 3085 3084 3084 3087 3087 3086 3085 3085 3087 3087 3087 3087 3088 3088 3087 3084 3082 3083 3080 3065 3058 3062 3066 3061 3040 3029 3038 3040 3040 3044 3043 3043 3044 3044 3044 3043 3043 3042 3041 3041 3040 3040 3040 3040 3039 3037 3036 3036 3035 3035 3034 3034 3035 3035 3036 3037 3037 3038 3038 3039 3040 3040 3042 3043 3044 3046 3047 3048 3048 3049 3049 3049 3050 3050 3050 3050 3050 3051 3052 3052 3053 3053 3054 3054
3078 3077 3080 3080 3080 3083 3083 3082 3082 3080 3082 3082 3080 3082 3085 3087 3085 3082 3081 3079 3071 3059 3055 3061 3063 3050 3031 3029 3036 3036 3039 3041 3039 3041 3040 3040 3040 3039 3039 3038 3037 3037 3036 3036 3036 3036 3037 3035 3034 3034 3032 3032 3031 3031 3032 3032 3033 3033 3034 3035 3035 3036 3036 3037 3039 3040 3041 3043 3044 3045 3045 3045 3045 3046 3046 3046 3046 3046 3046 3046 3047 3047 3048 3048 3049 3049
3077 3073 3072 3075 3078 3080 3079 3079 3080 3079 3078 3076 3075 3076 3077 3076 3075 3075 3075 3070 3062 3055 3055 3058 3054 3039 3029 3031 3033 3034 3037 3037 3036 3037 3036 3036 3036 3035 3035 3034 3033 3033 3033 3032 3032 3032 3033 3033 3032 3031 3030 3029 3029 3028 3029 3029 3030 3030 3031 3031 3031 3032 3033 3034 3035 3037 3039 3040 3041 3042 3042 3042 3042 3043 3043 3043 3043 3043 3042 3042 3042 3043 3043 3043 3044 3044
3076 3071 3069 3072 3075 3076 3075 3076 3078 3077 3074 3071 3071 3072 3069 3066 3067 3067 3065 3061 3058 3057 3054 3050 3042 3031 3029 3030 3031 3033 3034 3034 3035 3034 3033 3033 3031 3030 3029 3028 3029 3029 3029 3029 3029 3029 3029 3029 3029 3028 3027 3027 3026 3026 3026 3026 3027 3027 3027 3027 3028 3028 3028 3030 3032 3033 3035 3037 3037 3038 3038 3039 3040 3040 3040 3040 3040 3039 3039 3038 3038 3038 3038 3038 3039 3039
3073 3069 3070 3071 3070 3072 3072 3072 3075 3074 3071 3069 3067 3064 3063 3064 3065 3063 3060 3058 3059 3055 3049 3043 3034 3028 3030 3027 3027 3032 3031 3030 3031 3030 3030 3030 3027 3025 3023 3022 3024 3025 3025 3025 3025 3025 3026 3025 3025 3025 3024 3024 3024 3024 3024 3024 3025 3025 3025 3025 3025 3025 3025 3026 3028 3029 3031 3032 3033 3033 3034 3035 3035 3036 3036 3037 3036 3035 3034 3034 3034 3034 3033 3033 3034 3034
3071 3065 3067 3068 3064 3066 3068 3068 3069 3070 3067 3065 3062 3061 3061 3062 3061 3060 3058 3056 3057 3051 3043 3039 3031 3027 3030 3027 3025 3029 3029 3027 3027 3026 3027 3027 3024 3022 3020 3020 3021 3021 3022 3021 3022 3023 3022 3022 3022 3021 3022 3022 3022 3022 3021 3022 3023 3022 3023 3023 3023 3022 3023 3024 3025 3026 3027 3027 3028 3028 3029 3030 3030 3031 3032 3032 3031 3030 3029 3029 3029 3029 3028 3028 3028 3029
3069 3062 3062 3064 3061 3061 3064 3064 3061 3061 3061 3059 3058 3059 3059 3056 3054 3055 3054 3051 3051 3045 3037 3035 3030 3025 3027 3025 3024 3027 3026 3024 3023 3023 3024 3023 3021 3020 3019 3019 3019 3018 3019 3019 3020 3021 3020 3019 3019 3018 3019 3019 3019 3019 3019 3019 3020 3020 3021 3021 3021 3021 3022 3022 3022 3022 3023 3023 3024 3024 3024 3025 3025 3026 3026 3026 3026 3025 3025 3025 3025 3024 3024 3023 3023 3024
3066 3061 3057 3059 3060 3057 3058 3058 3055 3054 3056 3055 3055 3055 3054 3051 3048 3047 3045 3043 3043 3038 3033 3032 3029 3024 3023 3023 3024 3024 3022 3020 3019 3020 3021 3021 3020 3019 3019 3018 3017 3017 3017 3017 3018 3018 3017 3017 3016 3016 3016 3016 3016 3016 3016 3016 3017 3018 3018 3019 3019 3020 3019 3019 3019 3019 3019 3019 3019 3020 3019 3019 3020 3020 3020 3020 3020 3020 3020 3020 3020 3019 3019 3019 3019 3019
3062 3058 3054 3055 3057 3054 3051 3052 3051 3051 3053 3052 3051 3050 3048 3046 3045 3042 3039 3038 3037 3034 3030 3029 3024 3022 3023 3023 3021 3019 3016 3016 3016 3016 3018 3018 3018 3019 3018 3018 3017 3017 3016 3016 3016 3015 3015 3014 3014 3014 3014 3014 3014 3013 3013 3014 3014 3014 3015 3015 3016 3016 3015 3015 3015 3015 3015 3015 3015 3014 3014 3014 3014 3014 3014 3015 3014 3015 3015 3015 3014 3014 3014 3014 3014 3014
3058 3055 3052 3051 3051 3047 3045 3047 3049 3049 3049 3048 3047 3046 3045 3044 3042 3040 3035 3033 3032 3029 3026 3025 3020 3019 3022 3020 3015 3013 3011 3010 3013 3014 3014 3015 3016 3016 3016 3016 3016 3016 3016 3016 3015 3013 3013 3012 3011 3011 3011 3011 3011 3011 3011 3011 3010 3010 3010 3011 3012 3011 3011 3010 3010 3010 3010 3010 3009 3008 3009 3009 3008 3008 3008 3008 3009 3009 3010 3009 3009 3009 3009 3009 3010 3010
3054 3050 3047 3045 3044 3042 3042 3044 3045 3044 3044 3044 3042 3042 3042 3041 3038 3035 3029 3027 3027 3024 3022 3021 3015 3013 3018 3015 3008 3007 3007 3007 3010 3010 3009 3010 3011 3012 3012 3013 3012 3012 3013 3014 3013 3012 3011 3009 3009 3008 3008 3008 3007 3007 3007 3006 3006 3005 3004 3005 3006 3006 3006 3005 3005 3005 3004 3003 3002 3002 3003 3002 3001 3001 3001 3002 3002 3003 3004 3004 3004 3003 3004 3004 3005 3004
3047 3044 3041 3038 3037 3037 3038 3039 3039 3039 3040 3037 3035 3037 3038 3035 3033 3030 3026 3025 3023 3019 3019 3017 3007 3004 3010 3009 3005 3004 3003 3002 3003 3003 3002 3004 3005 3006 3007 3007 3007 3007 3008 3009 3008 3008 3007 3006 3005 3004 3004 3004 3003 3003 3003 3002 3001 3000 2999 2999 2998 2999 3000 3000 3000 2998 2997 2996 2995 2995 2995 2994 2994 2994 2995 2995 2997 2997 2998 2998 2998 2998 2998 2999 2999 2998
3039 3036 3035 3033 3032 3031 3032 3033 3032 3032 3031 3028 3027 3031 3031 3029 3030 3027 3024 3022 3016 3013 3016 3008 2994 2993 3002 3003 3002 3001 2998 2996 2995 2995 2996 2997 2997 2998 3000 3001 3002 3003 3003 3003 3003 3002 3002 3000 3000 2999 2998 2998 2998 2998 2998 2997 2996 2995 2993 2992 2990 2991 2993 2993 2993 2991 2990 2989 2989 2988 2988 2988 2988 2988 2989 2990 2991 2991 2992 2991 2991 2991 2992 2992 2992 2992
3032 3029 3029 3028 3026 3024 3023 3023 3023 3024 3023 3021 3021 3024 3023 3024 3025 3022 3021 3017 3008 3006 3007 2998 2987 2988 2995 2997 2997 2996 2993 2989 2987 2986 2989 2992 2990 2990 2991 2992 2995 2996 2996 2996 2996 2996 2995 2994 2994 2994 2993 2993 2992 2992 2993 2993 2992 2990 2988 2985 2984 2984 2985 2985 2984 2984 2983 2983 2982 2981 2981 2981 2982 2982 2983 2984 2984 2985 2986 2984 2984 2985 2985 2985 2985 2985
3025 3022 3023 3021 3017 3016 3014 3014 3017 3019 3017 3014 3015 3016 3016 3017 3018 3017 3014 3007 3003 3001 2995 2991 2989 2986 2988 2993 2992 2988 2986 2983 2980 2979 2982 2985 2984 2983 2983 2983 2985 2986 2985 2985 2986 2987 2987 2987 2988 2989 2988 2987 2987 2986 2987 2987 2986 2984 2981 2979 2978 2978 2977 2977 2976 2976 2976 2975 2975 2974 2974 2974 2975 2976 2977 2977 2977 2977 2977 2977 2977 2977 2978 2978 2978 2977
3021 3015 3016 3014 3009 3009 3009 3008 3011 3013 3009 3009 3009 3008 3009 3010 3011 3011 3004 2999 3002 2996 2983 2985 2990 2982 2981 2988 2986 2981 2981 2978 2976 2975 2976 2977 2978 2977 2977 2976 2976 2977 2976 2975 2976 2977 2978 2979 2980 2980 2979 2980 2980 2980 2980 2979 2977 2976 2973 2970 2971 2971 2970 2970 2969 2968 2968 2968 2967 2967 2967 2968 2969 2969 2969 2969 2969 2969 2969 2969 2970 2970 2971 2971 2970 2970
3015 3007 3008 3007 3001 3002 3004 3003 3004 3004 3001 3002 3003 3002 3003 3003 3002 3000 2995 2994 2997 2988 2975 2979 2984 2976 2975 2981 2980 2977 2976 2973 2971 2972 2972 2972 2971 2970 2971 2971 2970 2970 2969 2967 2967 2967 2968 2969 2970 2970 2970 2971 2972 2972 2972 2971 2968 2967 2964 2963 2963 2963 2963 2963 2962 2961 2961 2960 2960 2961 2962 2962 2962 2961 2962 2961 2961 2961 2961 2962 2962 2963 2963 2963 2962 2963
3008 3001 3002 3002 2996 2995 2998 2997 2997 2997 2994 2994 2994 2995 2995 2995 2993 2990 2987 2987 2987 2978 2971 2975 2974 2968 2970 2973 2971 2970 2969 2968 2968 2968 2967 2966 2965 2965 2966 2965 2963 2961 2960 2959 2958 2958 2958 2959 2960 2960 2960 2961 2961 2962 2963 2962 2960 2959 2957 2956 2955 2955 2955 2956 2954 2954 2954 2953 2954 2955 2956 2955 2955 2955 2955 2955 2955 2956 2956 2955 2956 2956 2955 2955 2955 2955
3005 2998 2999 2998 2991 2989 2991 2991 2990 2989 2987 2985 2985 2987 2988 2987 2983 2981 2979 2979 2977 2970 2967 2968 2962 2958 2963 2966 2963 2962 2963 2964 2964 2963 2962 2962 2961 2960 2956 2953 2952 2951 2950 2950 2950 2950 2949 2949 2949 2949 2949 2950 2951 2952 2953 2952 2951 2951 2949 2949 2948 2948 2949 2949 2948 2947 2947 2947 2948 2948 2948 2948 2949 2949 2949 2949 2950 2950 2950 2950 2950 2949 2948 2948 2948 2948
3001 2995 2995 2996 2987 2983 2987 2986 2983 2983 2981 2978 2977 2979 2979 2975 2971 2970 2970 2970 2967 2962 2959 2958 2955 2953 2957 2958 2955 2956 2958 2959 2960 2960 2957 2954 2952 2949 2945 2943 2943 2942 2941 2941 2942 2942 2941 2940 2939 2939 2939 2940 2941 2942 2943 2943 2942 2941 2941 2942 2942 2942 2941 2941 2941 2941 2941 2941 2942 2941 2941 2941 2942 2942 2942 2943 2943 2944 2944 2944 2943 2943 2942 2942 2942 2942
2997 2992 2992 2992 2983 2978 2983 2982 2979 2979 2973 2966 2967 2969 2967 2963 2961 2962 2961 2960 2962 2960 2955 2953 2951 2949 2947 2945 2945 2948 2950 2952 2954 2950 2944 2942 2942 2942 2938 2935 2934 2934 2933 2933 2933 2933 2932 2931 2931 2931 2931 2932 2933 2933 2934 2935 2933 2932 2934 2934 2933 2933 2933 2933 2933 2933 2934 2934 2934 2934 2934 2935 2935 2935 2935 2936 2936 2937 2937 2937 2937 2937 2937 2936 2936 2935
2991 2988 2987 2988 2980 2973 2977 2980 2977 2972 2963 2957 2962 2965 2960 2958 2958 2955 2954 2957 2959 2955 2950 2948 2945 2941 2937 2937 2939 2941 2943 2947 2946 2938 2934 2936 2936 2934 2931 2929 2928 2928 2927 2926 2926 2925 2924 2923 2923 2922 2922 2923 2924 2924 2925 2926 2924 2923 2924 2925 2925 2925 2925 2925 2925 2925 2925 2926 2926 2927 2928 2928 2928 2929 2929 2929 2930 2930 2930 2930 2931 2931 2931 2931 2930 2930
2985 2984 2982 2982 2977 2970 2974 2978 2970 2958 2955 2957 2959 2957 2953 2953 2953 2950 2952 2956 2951 2943 2942 2941 2936 2932 2931 2932 2933 2933 2935 2940 2937 2929 2929 2932 2928 2924 2925 2925 2924 2922 2920 2920 2919 2918 2918 2916 2915 2914 2913 2914 2915 2915 2916 2917 2916 2915 2915 2916 2917 2918 2918 2917 2917 2917 2917 2918 2919 2920 2921 2922 2922 2922 2923 2923 2923 2923 2924 2924 2925 2925 2925 2925 2924 2924
2979 2979 2976 2975 2973 2967 2969 2970 2957 2946 2951 2955 2952 2948 2947 2947 2946 2945 2948 2948 2939 2934 2936 2934 2928 2927 2927 2926 2926 2926 2928 2931 2929 2923 2923 2923 2919 2919 2920 2919 2918 2916 2915 2914 2913 2912 2911 2910 2908 2907 2906 2906 2906 2907 2907 2908 2908 2908 2908 2909 2911 2911 2911 2910 2910 2910 2910 2911 2913 2914 2915 2915 2915 2915 2916 2917 2917 2917 2918 2918 2918 2919 2919 2919 2918 2918
2973 2974 2971 2968 2966 2963 2961 2956 2946 2942 2946 2946 2942 2942 2943 2941 2941 2941 2942 2940 2934 2930 2929 2925 2922 2922 2922 2920 2921 2920 2921 2921 2920 2917 2916 2914 2913 2913 2913 2913 2912 2910 2909 2908 2907 2906 2905 2904 2903 2902 2901 2901 2900 2900 2900 2901 2900 2901 2902 2903 2904 2904 2903 2902 2902 2902 2903 2905 2906 2907 2908 2908 2908 2909 2910 2910 2911 2912 2912 2912 2912 2913 2913 2912 2912 2912
2968 2969 2967 2963 2960 2959 2956 2949 2943 2940 2938 2937 2937 2938 2939 2939 2939 2938 2937 2934 2930 2926 2924 2921 2919 2917 2916 2916 2915 2914 2914 2912 2910 2909 2908 2907 2906 2906 2906 2907 2907 2905 2904 2903 2901 2900 2900 2899 2899 2899 2898 2897 2895 2895 2895 2895 2895 2895 2896 2896 2895 2895 2894 2894 2894 2895 2896 2897 2898 2899 2900 2901 2902 2903 2904 2905 2906 2906 2906 2906 2906 2906 2907 2907 2906 2906
2962 2963 2963 2960 2957 2957 2954 2949 2944 2941 2937 2935 2934 2933 2933 2935 2935 2934 2932 2927 2923 2923 2923 2920 2917 2915 2914 2913 2912 2910 2909 2905 2902 2901 2901 2900 2900 2901 2901 2901 2901 2900 2899 2898 2896 2895 2894 2893 2894 2893 2893 2892 2890 2890 2890 2889 2889 2889 2889 2889 2888 2888 2888 2888 2889 2889 2890 2891 2891 2891 2892 2894 2895 2896 2897 2898 2899 2899 2899 2900 2900 2900 2901 2900 2900 2900
2957 2957 2958 2957 2954 2954 2952 2947 2943 2940 2936 2933 2931 2929 2929 2929 2930 2931 2926 2919 2917 2920 2920 2918 2917 2914 2912 2911 2910 2909 2908 2904 2899 2896 2895 2895 2896 2897 2897 2896 2895 2894 2893 2892 2891 2889 2888 2887 2887 2887 2887 2886 2885 2885 2885 2884 2883 2883 2883 2884 2883 2882 2882 2883 2883 2883 2884 2884 2885 2885 2886 2887 2888 2889 2890 2891 2892 2892 2893 2893 2894 2895 2895 2895 2895 2895
2952 2952 2953 2952 2950 2950 2948 2944 2940 2937 2933 2931 2929 2928 2925 2923 2925 2928 2924 2918 2916 2916 2916 2916 2915 2913 2911 2909 2908 2907 2906 2904 2900 2895 2892 2891 2889 2889 2890 2891 2890 2890 2888 2887 2886 2884 2883 2882 2881 2881 2880 2880 2880 2880 2879 2878 2877 2876 2877 2877 2877 2875 2876 2876 2877 2877 2878 2878 2880 2880 2880 2881 2881 2882 2883 2884 2885 2886 2886 2887 2888 2889 2889 2889 2889 2889
2949 2948 2948 2948 2947 2946 2944 2942 2938 2934 2931 2930 2928 2925 2923 2922 2922 2923 2920 2917 2916 2914 2913 2914 2913 2911 2910 2907 2905 2904 2901 2900 2897 2894 2891 2888 2885 2884 2884 2883 2882 2883 2883 2882 2881 2880 2878 2875 2874 2874 2874 2875 2874 2873 2873 2872 2871 2871 2871 2871 2870 2869 2869 2870 2870 2871 2871 2872 2873 2874 2874 2875 2875 2875 2876 2877 2878 2879 2880 2881 2881 2882 2882 2883 2883 2883
2947 2946 2943 2943 2944 2942 2940 2939 2934 2929 2928 2928 2926 2923 2923 2923 2921 2918 2915 2913 2912 2911 2911 2910 2909 2908 2906 2903 2901 2899 2897 2894 2892 2890 2887 2885 2883 2880 2879 2877 2876 2875 2875 2875 2874 2874 2872 2870 2868 2868 2868 2869 2869 2867 2867 2866 2864 2864 2865 2864 2864 2863 2863 2863 2862 2863 2864 2864 2865 2867 2868 2869 2870 2871 2871 2871 2871 2872 2873 2874 2874 2874 2875 2875 2875 2875
2944 2943 2939 2939 2940 2938 2934 2931 2928 2925 2925 2927 2924 2921 2921 2920 2918 2915 2913 2910 2909 2907 2906 2904 2903 2902 2899 2896 2894 2891 2889 2888 2886 2884 2882 2879 2878 2876 2874 2872 2870 2868 2867 2867 2866 2866 2865 2863 2862 2862 2862 2863 2863 2862 2861 2860 2858 2858 2858 2857 2857 2857 2856 2856 2855 2855 2855 2856 2857 2859 2861 2863 2864 2865 2865 2866 2866 2866 2866 2867 2867 2867 2867 2868 2868 2868
2939 2939 2937 2935 2935 2933 2929 2925 2924 2924 2924 2925 2923 2920 2917 2916 2914 2912 2910 2908 2906 2903 2901 2899 2896 2895 2893 2890 2887 2885 2883 2881 2879 2878 2876 2873 2871 2870 2868 2866 2864 2862 2860 2859 2858 2858 2856 2855 2855 2855 2856 2857 2857 2856 2856 2854 2852 2851 2851 2850 2850 2850 2849 2848 2848 2848 2849 2849 2851 2852 2853 2855 2856 2857 2858 2859 2859 2860 2861 2861 2860 2860 2860 2860 2860 2860
2933 2935 2934 2930 2928 2927 2923 2921 2921 2922 2921 2922 2921 2917 2913 2912 2910 2908 2906 2904 2902 2900 2897 2893 2891 2889 2887 2885 2881 2879 2877 2875 2873 2872 2871 2868 2866 2864 2862 2860 2858 2856 2854 2852 2851 2849 2848 2847 2847 2847 2847 2849 2851 2850 2849 2849 2847 2845 2844 2843 2842 2842 2842 2841 2841 2842 2842 2842 2844 2845 2846 2847 2848 2849 2850 2851 2851 2852 2853 2853 2853 2853 2853 2853 2853 2853
2928 2929 2928 2925 2923 2920 2917 2916 2919 2919 2916 2915 2915 2912 2910 2908 2905 2902 2900 2898 2897 2895 2892 2889 2886 2884 2882 2880 2877 2873 2871 2870 2868 2865 2864 2863 2861 2859 2856 2854 2851 2850 2848 2846 2844 2842 2840 2838 2838 2838 2838 2839 2841 2841 2840 2840 2840 2839 2838 2837 2835 2835 2835 2835 2835 2835 2835 2835 2836 2837 2838 2839 2840 2841 2842 2843 2843 2844 2844 2845 2846 2846 2846 2846 2846 2847
2924 2923 2922 2919 2917 2914 2911 2911 2913 2913 2911 2910 2908 2906 2905 2903 2900 2898 2896 2894 2891 2889 2887 2884 2882 2880 2878 2875 2872 2868 2866 2865 2862 2859 2857 2856 2854 2853 2851 2848 2845 2843 2841 2840 2838 2835 2833 2831 2830 2829 2829 2829 2829 2829 2829 2830 2831 2830 2830 2829 2828 2827 2826 2826 2827 2827 2828 2828 2829 2829 2830 2831 2832 2833 2834 2834 2835 2835 2836 2837 2837 2838 2839 2840 2840 2840
2921 2918 2915 2913 2911 2908 2907 2907 2908 2906 2903 2903 2903 2901 2900 2897 2894 2893 2892 2889 2887 2885 2882 2879 2878 2876 2873 2871 2867 2863 2860 2859 2857 2853 2850 2848 2846 2845 2843 2841 2838 2835 2833 2831 2829 2827 2824 2823 2821 2821 2820 2820 2820 2819 2818 2819 2820 2820 2820 2820 2820 2818 2817 2817 2817 2818 2819 2820 2821 2822 2822 2823 2824 2825 2825 2826 2826 2827 2828 2828 2829 2830 2831 2832 2833 2833
2916 2912 2910 2909 2906 2903 2902 2903 2904 2901 2897 2897 2897 2896 2894 2892 2888 2886 2885 2883 2881 2879 2876 2874 2872 2870 2869 2866 2863 2858 2854 2852 2850 2846 2842 2840 2839 2836 2834 2833 2831 2828 2826 2823 2820 2818 2817 2816 2814 2813 2812 2812 2812 2810 2809 2809 2809 2810 2811 2810 2810 2809 2808 2808 2808 2808 2809 2810 2812 2813 2814 2814 2815 2815 2816 2817 2818 2819 2820 2820 2821 2822 2823 2824 2825 2826
2908 2906 2906 2904 2900 2897 2897 2899 2900 2896 2892 2892 2892 2890 2888 2886 2883 2880 2878 2877 2875 2873 2870 2867 2865 2863 2862 2861 2858 2854 2849 2846 2844 2840 2835 2833 2832 2830 2827 2825 2822 2820 2818 2815 2812 2809 2808 2808 2808 2807 2806 2805 2804 2802 2800 2800 2800 2801 2801 2800 2800 2799 2799 2799 2799 2799 2799 2800 2801 2803 2803 2804 2805 2806 2806 2807 2809 2810 2811 2812 2813 2814 2815 2816 2817 2817